User: anonymous   Login
Location: Cheadle
(51.0146°N, 113.5417°W)
Time: 08:00:54
(UTC+00:00)
Language:

RS-44 - Orbit

View from above orbital plane
View from above orbital plane
View from above satellite
View from above satellite

Ground track
Ground track

The orbit data is extracted from the following two-line orbital elements,

1 44909U 19096E   23336.78242712  .00000030  00000-0  69341-4 0  9991
2 44909  82.5227 235.9071 0217845 152.5377 208.7439 12.79724169183720
Epoch (UTC): 02 December 2023 18:46:41
Eccentricity: 0.0217845
inclination: 82.5227°
perigee height: 1174 km
apogee height: 1511 km
right ascension of ascending node: 235.9071°
argument of perigee: 152.5377°
revolutions per day: 12.79724169
mean anomaly at epoch: 208.7439°
orbit number at epoch: 18372

The dashed part of the orbit path shows where the satellite is in the earth's shadow,  

DLR